20:08 MESZ | 04.05.2026 Profi-Wetter| Mobile Seite| Kontakt| Impressum| Datenschutz
Social

Wetterstation Neuburg/Donau (Flugplatz)

Messwerte
  Temperatur Wetter Niederschlag Luftdruck Wind
Mo, 19:20 Uhr 22° - 1011 hPa 8 km/h NW
Mo, 19:00 Uhr 22° - 1010 hPa 11 km/h NW
Mo, 18:00 Uhr 23° - 1010 hPa 7 km/h N
Mo, 17:00 Uhr 23° - 1010 hPa 11 km/h NW
Mo, 16:00 Uhr 23° - 1010 hPa 4 km/h O
Mo, 15:00 Uhr 23° - 1011 hPa 7 km/h O
Mo, 14:00 Uhr 22° - 1012 hPa 7 km/h O
Mo, 13:00 Uhr 21° - 1013 hPa 7 km/h O
Mo, 12:00 Uhr 20° - 1014 hPa 7 km/h N
Mo, 11:00 Uhr 19° - 1014 hPa 4 km/h NO
Mo, 10:00 Uhr 18° - 1015 hPa 4 km/h NW
Mo, 09:00 Uhr 16° - 1015 hPa 4 km/h NW
Mo, 08:00 Uhr 13° 0.1 mm 1015 hPa 4 km/h SW
Mo, 07:00 Uhr 12° - 1016 hPa 4 km/h W
Mo, 06:00 Uhr 12° - 1016 hPa 4 km/h NW
Mo, 05:00 Uhr 11° - 1016 hPa 4 km/h S
Mo, 04:00 Uhr 14° - 1015 hPa 4 km/h W
Mo, 03:00 Uhr 16° - 1015 hPa 7 km/h SW
Mo, 02:00 Uhr 16° - 1014 hPa 11 km/h W
Mo, 01:00 Uhr 18° - 1013 hPa 18 km/h NW

Alle Zeitangaben MESZ